Time,TemperatureF,DewpointF,PressureIn,WindDirection,WindDirectionDegrees,WindSpeedMPH,WindSpeedGustMPH,Humidity,HourlyPrecipIn,Conditions,Clouds,dailyrainin,SoftwareType,DateUTC
2013-04-01 00:02:00,23.9,11.3,30.06,SE,135,4.0,4.0,58,0.00,,,0.05,meteohub,2013-04-01 06:02:00,
2013-04-01 00:07:00,23.9,11.3,30.06,SE,135,4.0,4.0,58,0.00,,,0.00,meteohub,2013-04-01 06:07:00,
2013-04-01 00:12:00,24.1,11.5,30.06,SE,135,2.0,4.0,58,0.00,,,0.00,meteohub,2013-04-01 06:12:00,
2013-04-01 00:18:00,24.1,11.5,30.06,SE,135,3.0,4.0,58,0.00,,,0.00,meteohub,2013-04-01 06:18:00,
2013-04-01 00:23:00,24.1,11.5,30.06,SE,135,3.0,4.0,58,0.00,,,0.00,meteohub,2013-04-01 06:23:00,
2013-04-01 00:28:00,24.1,11.8,30.06,South,180,0.0,4.0,59,0.00,,,0.00,meteohub,2013-04-01 06:28:00,
2013-04-01 00:33:00,23.9,11.7,30.06,SE,135,4.0,4.0,59,0.00,,,0.00,meteohub,2013-04-01 06:33:00,
2013-04-01 00:38:00,23.9,12.0,30.06,SE,135,3.0,4.0,60,0.00,,,0.00,meteohub,2013-04-01 06:38:00,
2013-04-01 00:43:00,23.7,11.8,30.06,SE,135,2.0,4.0,60,0.00,,,0.00,meteohub,2013-04-01 06:43:00,
2013-04-01 00:49:00,23.7,11.8,30.06,SE,135,4.0,4.0,60,0.00,,,0.00,meteohub,2013-04-01 06:49:00,
2013-04-01 00:54:00,23.5,11.7,30.06,SE,135,4.0,4.0,60,0.00,,,0.00,meteohub,2013-04-01 06:54:00,
2013-04-01 00:59:00,23.5,11.3,30.05,SE,135,3.0,4.0,59,0.00,,,0.00,meteohub,2013-04-01 06:59:00,
2013-04-01 01:04:00,23.4,11.5,30.05,ESE,113,4.0,4.0,60,0.00,,,0.00,meteohub,2013-04-01 07:04:00,
2013-04-01 01:09:00,23.4,11.5,30.05,SE,135,4.0,4.0,60,0.00,,,0.00,meteohub,2013-04-01 07:09:00,
2013-04-01 01:14:00,23.4,11.5,30.05,SE,135,4.0,4.0,60,0.00,,,0.00,meteohub,2013-04-01 07:14:00,
2013-04-01 01:20:00,23.2,11.3,30.04,South,180,3.0,4.0,60,0.00,,,0.00,meteohub,2013-04-01 07:20:00,
2013-04-01 01:25:00,23.2,11.3,30.04,SE,135,4.0,4.0,60,0.00,,,0.00,meteohub,2013-04-01 07:25:00,
2013-04-01 01:30:00,23.2,11.3,30.04,SE,135,4.0,4.0,60,0.00,,,0.00,meteohub,2013-04-01 07:30:00,
2013-04-01 01:35:00,23.0,10.8,30.04,SE,135,4.0,4.0,59,0.00,,,0.00,meteohub,2013-04-01 07:35:00,
2013-04-01 01:40:00,23.0,10.8,30.04,SE,135,2.0,4.0,59,0.00,,,0.00,meteohub,2013-04-01 07:40:00,
2013-04-01 01:46:00,23.0,10.8,30.04,SE,135,2.0,4.0,59,0.00,,,0.00,meteohub,2013-04-01 07:46:00,
2013-04-01 01:51:00,22.8,10.9,30.04,SE,135,4.0,4.0,60,0.00,,,0.00,meteohub,2013-04-01 07:51:00,
2013-04-01 01:56:00,22.6,10.4,30.05,SE,135,2.0,4.0,59,0.00,,,0.00,meteohub,2013-04-01 07:56:00,
2013-04-01 02:02:00,22.6,10.4,30.04,South,180,3.0,4.0,59,0.00,,,0.00,meteohub,2013-04-01 08:02:00,
2013-04-01 02:07:00,22.6,10.4,30.04,South,180,3.0,4.0,59,0.00,,,0.00,meteohub,2013-04-01 08:07:00,
2013-04-01 02:12:00,22.3,10.2,30.04,ESE,113,2.0,3.0,59,0.00,,,0.00,meteohub,2013-04-01 08:12:00,
2013-04-01 02:17:00,22.3,10.2,30.04,SE,135,2.0,3.0,59,0.00,,,0.00,meteohub,2013-04-01 08:17:00,
2013-04-01 02:22:00,22.1,10.0,30.04,SE,135,1.0,3.0,59,0.00,,,0.00,meteohub,2013-04-01 08:22:00,
2013-04-01 02:27:00,22.1,10.0,30.04,SE,135,2.0,3.0,59,0.00,,,0.00,meteohub,2013-04-01 08:27:00,
2013-04-01 02:32:00,22.1,10.0,30.04,SE,135,2.0,3.0,59,0.00,,,0.00,meteohub,2013-04-01 08:32:00,
2013-04-01 02:37:00,22.3,10.2,30.04,SE,135,2.0,2.0,59,0.00,,,0.00,meteohub,2013-04-01 08:37:00,
2013-04-01 02:43:00,22.5,10.2,30.04,SE,135,2.0,2.0,59,0.00,,,0.00,meteohub,2013-04-01 08:43:00,
2013-04-01 02:48:00,22.6,10.4,30.04,SE,135,2.0,3.0,59,0.00,,,0.00,meteohub,2013-04-01 08:48:00,
2013-04-01 02:53:00,22.8,10.6,30.04,SE,135,2.0,3.0,59,0.00,,,0.00,meteohub,2013-04-01 08:53:00,
2013-04-01 02:58:00,23.0,10.8,30.04,SE,135,3.0,3.0,59,0.00,,,0.00,meteohub,2013-04-01 08:58:00,
2013-04-01 03:03:00,23.2,10.6,30.04,South,180,2.0,3.0,58,0.00,,,0.00,meteohub,2013-04-01 09:03:00,
2013-04-01 03:09:00,23.2,10.6,30.03,SE,135,3.0,3.0,58,0.00,,,0.00,meteohub,2013-04-01 09:09:00,
2013-04-01 03:14:00,23.2,10.6,30.03,SE,135,2.0,3.0,58,0.00,,,0.00,meteohub,2013-04-01 09:14:00,
2013-04-01 03:19:00,23.0,10.4,30.03,SE,135,3.0,3.0,58,0.00,,,0.00,meteohub,2013-04-01 09:19:00,
2013-04-01 03:24:00,23.0,10.4,30.03,North,0,2.0,3.0,58,0.00,,,0.00,meteohub,2013-04-01 09:24:00,
2013-04-01 03:29:00,23.4,10.4,30.03,South,180,2.0,3.0,57,0.00,,,0.00,meteohub,2013-04-01 09:29:00,
2013-04-01 03:35:00,23.4,10.0,30.03,SE,135,2.0,4.0,56,0.00,,,0.00,meteohub,2013-04-01 09:35:00,
2013-04-01 03:40:00,23.2,9.9,30.03,SE,135,2.0,4.0,56,0.00,,,0.00,meteohub,2013-04-01 09:40:00,
2013-04-01 03:45:00,23.4,10.0,30.03,SE,135,2.0,4.0,56,0.00,,,0.00,meteohub,2013-04-01 09:45:00,
2013-04-01 03:51:00,23.2,9.9,30.03,SE,135,2.0,4.0,56,0.00,,,0.00,meteohub,2013-04-01 09:51:00,
2013-04-01 03:56:00,23.0,9.7,30.03,SE,135,2.0,4.0,56,0.00,,,0.00,meteohub,2013-04-01 09:56:00,
2013-04-01 04:01:00,23.0,9.7,30.03,SE,135,3.0,3.0,56,0.00,,,0.00,meteohub,2013-04-01 10:01:00,
2013-04-01 04:07:00,22.8,10.2,30.03,SE,135,3.0,3.0,58,0.00,,,0.00,meteohub,2013-04-01 10:07:00,
2013-04-01 04:12:00,23.0,10.0,30.03,ESE,113,2.0,3.0,57,0.00,,,0.00,meteohub,2013-04-01 10:12:00,
2013-04-01 04:17:00,23.4,10.0,30.03,South,180,2.0,4.0,56,0.00,,,0.00,meteohub,2013-04-01 10:17:00,
2013-04-01 04:22:00,23.9,9.7,30.04,SSE,158,1.0,4.0,54,0.00,,,0.00,meteohub,2013-04-01 10:22:00,
2013-04-01 04:28:00,24.1,9.5,30.03,NW,315,2.0,4.0,53,0.00,,,0.00,meteohub,2013-04-01 10:28:00,
2013-04-01 04:33:00,24.1,9.5,30.03,South,180,2.0,4.0,53,0.00,,,0.00,meteohub,2013-04-01 10:33:00,
2013-04-01 04:38:00,24.1,9.5,30.03,SW,225,3.0,4.0,53,0.00,,,0.00,meteohub,2013-04-01 10:38:00,
2013-04-01 04:43:00,24.1,9.5,30.03,East,90,4.0,4.0,53,0.00,,,0.00,meteohub,2013-04-01 10:43:00,
2013-04-01 04:48:00,24.1,9.5,30.03,South,180,2.0,4.0,53,0.00,,,0.00,meteohub,2013-04-01 10:48:00,
2013-04-01 04:53:00,23.9,9.3,30.03,SE,135,3.0,4.0,53,0.00,,,0.00,meteohub,2013-04-01 10:53:00,
2013-04-01 04:58:00,23.9,9.7,30.03,SE,135,3.0,5.0,54,0.00,,,0.00,meteohub,2013-04-01 10:58:00,
2013-04-01 05:04:00,23.9,9.7,30.02,ESE,113,3.0,5.0,54,0.00,,,0.00,meteohub,2013-04-01 11:04:00,
2013-04-01 05:09:00,23.7,9.5,30.02,SE,135,4.0,5.0,54,0.00,,,0.00,meteohub,2013-04-01 11:09:00,
2013-04-01 05:14:00,23.7,9.9,30.02,SE,135,3.0,5.0,55,0.00,,,0.00,meteohub,2013-04-01 11:14:00,
2013-04-01 05:20:00,23.7,9.9,30.02,SE,135,3.0,5.0,55,0.00,,,0.00,meteohub,2013-04-01 11:20:00,
2013-04-01 05:25:00,23.5,9.7,30.02,SE,135,3.0,5.0,55,0.00,,,0.00,meteohub,2013-04-01 11:25:00,
2013-04-01 05:30:00,23.5,10.2,30.03,SE,135,3.0,4.0,56,0.00,,,0.00,meteohub,2013-04-01 11:30:00,
2013-04-01 05:35:00,23.5,10.2,30.02,SE,135,2.0,5.0,56,0.00,,,0.00,meteohub,2013-04-01 11:35:00,
2013-04-01 05:40:00,23.4,10.0,30.02,SE,135,2.0,5.0,56,0.00,,,0.00,meteohub,2013-04-01 11:40:00,
2013-04-01 05:45:00,23.2,10.2,30.02,SE,135,4.0,4.0,57,0.00,,,0.00,meteohub,2013-04-01 11:45:00,
2013-04-01 05:51:00,23.2,10.2,30.02,South,180,4.0,4.0,57,0.00,,,0.00,meteohub,2013-04-01 11:51:00,
2013-04-01 05:56:00,23.0,10.0,30.03,SE,135,3.0,4.0,57,0.00,,,0.00,meteohub,2013-04-01 11:56:00,
2013-04-01 06:01:00,23.0,10.0,30.02,SE,135,5.0,5.0,57,0.00,,,0.00,meteohub,2013-04-01 12:01:00,
2013-04-01 06:06:00,23.0,10.0,30.02,SE,135,5.0,5.0,57,0.00,,,0.00,meteohub,2013-04-01 12:06:00,
2013-04-01 06:12:00,23.0,10.0,30.02,SE,135,2.0,5.0,57,0.00,,,0.00,meteohub,2013-04-01 12:12:00,
2013-04-01 06:17:00,22.8,10.2,30.02,SE,135,3.0,5.0,58,0.00,,,0.00,meteohub,2013-04-01 12:17:00,
2013-04-01 06:22:00,22.8,9.9,30.02,East,90,2.0,5.0,57,0.00,,,0.00,meteohub,2013-04-01 12:22:00,
2013-04-01 06:27:00,23.0,10.0,30.03,NE,45,2.0,4.0,57,0.00,,,0.00,meteohub,2013-04-01 12:27:00,
2013-04-01 06:32:00,23.0,10.0,30.02,SE,135,2.0,4.0,57,0.00,,,0.00,meteohub,2013-04-01 12:32:00,
2013-04-01 06:37:00,23.4,10.4,30.02,SE,135,2.0,4.0,57,0.00,,,0.00,meteohub,2013-04-01 12:37:00,
2013-04-01 06:43:00,23.4,10.4,30.02,South,180,2.0,4.0,57,0.00,,,0.00,meteohub,2013-04-01 12:43:00,
2013-04-01 06:48:00,23.2,10.2,30.02,SE,135,3.0,4.0,57,0.00,,,0.00,meteohub,2013-04-01 12:48:00,
2013-04-01 06:53:00,22.8,10.2,30.03,SE,135,2.0,4.0,58,0.00,,,0.00,meteohub,2013-04-01 12:53:00,
2013-04-01 06:58:00,22.6,10.4,30.03,SSW,203,4.0,4.0,59,0.00,,,0.00,meteohub,2013-04-01 12:58:00,
2013-04-01 07:04:00,22.3,10.2,30.02,South,180,3.0,4.0,59,0.00,,,0.00,meteohub,2013-04-01 13:04:00,
2013-04-01 07:09:00,22.5,10.8,30.03,SE,135,3.0,4.0,60,0.00,,,0.00,meteohub,2013-04-01 13:09:00,
2013-04-01 07:14:00,22.6,10.8,30.03,SE,135,4.0,4.0,60,0.00,,,0.00,meteohub,2013-04-01 13:14:00,
2013-04-01 07:20:00,23.2,10.9,30.03,SE,135,3.0,4.0,59,0.00,,,0.00,meteohub,2013-04-01 13:20:00,
2013-04-01 07:25:00,23.5,11.3,30.03,SE,135,2.0,4.0,59,0.00,,,0.00,meteohub,2013-04-01 13:25:00,
2013-04-01 07:30:00,23.7,11.1,30.03,SE,135,2.0,4.0,58,0.00,,,0.00,meteohub,2013-04-01 13:30:00,
2013-04-01 07:35:00,23.7,11.1,30.03,SE,135,3.0,4.0,58,0.00,,,0.00,meteohub,2013-04-01 13:35:00,
2013-04-01 07:40:00,23.9,11.3,30.03,SE,135,3.0,4.0,58,0.00,,,0.00,meteohub,2013-04-01 13:40:00,
2013-04-01 07:45:00,23.9,10.9,30.03,SE,135,3.0,3.0,57,0.00,,,0.00,meteohub,2013-04-01 13:45:00,
2013-04-01 07:50:00,23.9,10.9,30.03,SE,135,2.0,3.0,57,0.00,,,0.00,meteohub,2013-04-01 13:50:00,
2013-04-01 07:56:00,23.9,10.9,30.03,SE,135,2.0,3.0,57,0.00,,,0.00,meteohub,2013-04-01 13:56:00,
2013-04-01 08:01:00,24.1,11.1,30.03,SE,135,1.0,3.0,57,0.00,,,0.00,meteohub,2013-04-01 14:01:00,
2013-04-01 08:06:00,24.1,11.1,30.03,SE,135,1.0,3.0,57,0.00,,,0.00,meteohub,2013-04-01 14:06:00,
2013-04-01 08:12:00,24.4,11.5,30.03,SE,135,4.0,4.0,57,0.00,,,0.00,meteohub,2013-04-01 14:12:00,
2013-04-01 08:17:00,24.4,11.5,30.03,SE,135,2.0,4.0,57,0.00,,,0.00,meteohub,2013-04-01 14:17:00,
2013-04-01 08:22:00,24.6,11.5,30.03,SE,135,3.0,4.0,57,0.00,,,0.00,meteohub,2013-04-01 14:22:00,
2013-04-01 08:27:00,24.8,11.3,30.03,SE,135,3.0,4.0,56,0.00,,,0.00,meteohub,2013-04-01 14:27:00,
2013-04-01 08:32:00,25.0,11.5,30.03,SE,135,3.0,6.0,56,0.00,,,0.00,meteohub,2013-04-01 14:32:00,
2013-04-01 08:37:00,25.3,11.8,30.03,SW,225,2.0,6.0,56,0.00,,,0.00,meteohub,2013-04-01 14:37:00,
2013-04-01 08:42:00,25.9,12.4,30.03,ESE,113,1.0,4.0,56,0.00,,,0.00,meteohub,2013-04-01 14:42:00,
2013-04-01 08:47:00,26.6,12.6,30.02,South,180,2.0,4.0,55,0.00,,,0.00,meteohub,2013-04-01 14:47:00,
2013-04-01 08:53:00,27.7,13.6,30.02,SE,135,1.0,4.0,55,0.00,,,0.00,meteohub,2013-04-01 14:53:00,
2013-04-01 08:58:00,28.8,15.8,30.02,West,270,4.0,4.0,58,0.00,,,0.00,meteohub,2013-04-01 14:58:00,
2013-04-01 09:03:00,30.2,16.0,30.02,South,180,2.0,4.0,55,0.00,,,0.00,meteohub,2013-04-01 15:03:00,
2013-04-01 09:08:00,31.6,16.5,30.02,South,180,3.0,4.0,53,0.00,,,0.00,meteohub,2013-04-01 15:08:00,
2013-04-01 09:14:00,32.7,16.5,30.02,NW,315,2.0,4.0,51,0.00,,,0.00,meteohub,2013-04-01 15:14:00,
2013-04-01 09:19:00,33.1,16.5,30.03,SE,135,6.0,6.0,50,0.00,,,0.00,meteohub,2013-04-01 15:19:00,
2013-04-01 09:24:00,33.1,16.5,30.03,NNE,23,4.0,4.0,50,0.00,,,0.00,meteohub,2013-04-01 15:24:00,
2013-04-01 09:29:00,33.1,16.0,30.02,NW,315,4.0,6.0,49,0.00,,,0.00,meteohub,2013-04-01 15:29:00,
2013-04-01 09:35:00,33.4,15.8,30.02,WSW,248,3.0,9.0,48,0.00,,,0.00,meteohub,2013-04-01 15:35:00,
2013-04-01 09:40:00,34.2,17.1,30.02,NW,315,3.0,9.0,49,0.00,,,0.00,meteohub,2013-04-01 15:40:00,
2013-04-01 09:45:00,34.5,16.9,30.02,West,270,7.0,7.0,48,0.00,,,0.00,meteohub,2013-04-01 15:45:00,
2013-04-01 09:51:00,34.5,15.8,30.02,SW,225,2.0,8.0,46,0.00,,,0.00,meteohub,2013-04-01 15:51:00,
2013-04-01 09:56:00,35.2,16.5,30.02,South,180,2.0,8.0,46,0.00,,,0.00,meteohub,2013-04-01 15:56:00,
2013-04-01 10:01:00,35.8,17.1,30.02,West,270,2.0,8.0,46,0.00,,,0.00,meteohub,2013-04-01 16:01:00,
2013-04-01 10:07:00,35.8,17.1,30.01,West,270,2.0,7.0,46,0.00,,,0.00,meteohub,2013-04-01 16:07:00,
2013-04-01 10:12:00,37.8,20.8,30.02,South,180,3.0,7.0,50,0.00,,,0.00,meteohub,2013-04-01 16:12:00,
2013-04-01 10:17:00,38.5,21.4,30.01,SE,135,2.0,5.0,50,0.00,,,0.00,meteohub,2013-04-01 16:17:00,
2013-04-01 10:22:00,39.0,22.5,30.01,SE,135,2.0,5.0,51,0.00,,,0.00,meteohub,2013-04-01 16:22:00,
2013-04-01 10:28:00,39.2,22.1,30.01,SE,135,3.0,5.0,50,0.00,,,0.00,meteohub,2013-04-01 16:28:00,
2013-04-01 10:33:00,39.2,21.6,30.01,SE,135,4.0,4.0,49,0.00,,,0.00,meteohub,2013-04-01 16:33:00,
2013-04-01 10:38:00,39.0,22.5,30.01,NW,315,0.0,4.0,51,0.00,,,0.00,meteohub,2013-04-01 16:38:00,
2013-04-01 10:43:00,40.3,23.5,30.01,NW,315,2.0,4.0,51,0.00,,,0.00,meteohub,2013-04-01 16:43:00,
2013-04-01 10:48:00,41.9,24.6,30.01,NE,45,2.0,6.0,50,0.00,,,0.00,meteohub,2013-04-01 16:48:00,
2013-04-01 10:54:00,43.0,24.6,30.01,SW,225,3.0,6.0,48,0.00,,,0.00,meteohub,2013-04-01 16:54:00,
2013-04-01 10:59:00,43.5,23.0,30.01,SE,135,11.0,11.0,44,0.00,,,0.00,meteohub,2013-04-01 16:59:00,
2013-04-01 11:04:00,42.6,21.2,30.01,SE,135,3.0,11.0,42,0.00,,,0.00,meteohub,2013-04-01 17:04:00,
2013-04-01 11:09:00,42.1,20.7,30.01,North,0,2.0,11.0,42,0.00,,,0.00,meteohub,2013-04-01 17:09:00,
2013-04-01 11:15:00,41.9,21.0,30.01,SE,135,2.0,11.0,43,0.00,,,0.00,meteohub,2013-04-01 17:15:00,
2013-04-01 11:20:00,41.2,20.3,30.01,NE,45,2.0,6.0,43,0.00,,,0.00,meteohub,2013-04-01 17:20:00,
2013-04-01 11:25:00,40.5,19.8,30.01,NW,315,3.0,7.0,43,0.00,,,0.00,meteohub,2013-04-01 17:25:00,
2013-04-01 11:30:00,40.5,19.8,30.02,South,180,6.0,7.0,43,0.00,,,0.00,meteohub,2013-04-01 17:30:00,
2013-04-01 11:36:00,39.9,19.2,30.01,SE,135,4.0,6.0,43,0.00,,,0.00,meteohub,2013-04-01 17:36:00,
2013-04-01 11:41:00,40.3,20.1,30.01,NE,45,4.0,6.0,44,0.00,,,0.00,meteohub,2013-04-01 17:41:00,
2013-04-01 11:46:00,40.8,20.1,30.01,East,90,4.0,8.0,43,0.00,,,0.00,meteohub,2013-04-01 17:46:00,
2013-04-01 11:51:00,41.4,19.4,30.01,ESE,113,3.0,8.0,41,0.00,,,0.00,meteohub,2013-04-01 17:51:00,
2013-04-01 11:57:00,41.5,20.1,30.00,East,90,3.0,8.0,42,0.00,,,0.00,meteohub,2013-04-01 17:57:00,
2013-04-01 12:02:00,41.4,19.9,30.00,SE,135,4.0,6.0,42,0.00,,,0.00,meteohub,2013-04-01 18:02:00,
2013-04-01 12:07:00,41.4,19.9,30.00,SE,135,4.0,6.0,42,0.00,,,0.00,meteohub,2013-04-01 18:07:00,
2013-04-01 12:12:00,41.0,19.6,30.00,West,270,2.0,6.0,42,0.00,,,0.00,meteohub,2013-04-01 18:12:00,
2013-04-01 12:17:00,41.4,19.9,30.00,North,0,2.0,6.0,42,0.00,,,0.00,meteohub,2013-04-01 18:17:00,
2013-04-01 12:22:00,41.9,19.9,30.00,East,90,5.0,8.0,41,0.00,,,0.00,meteohub,2013-04-01 18:22:00,
2013-04-01 12:28:00,42.1,20.1,30.00,SE,135,4.0,8.0,41,0.00,,,0.00,meteohub,2013-04-01 18:28:00,
2013-04-01 12:33:00,42.3,20.3,30.00,NE,45,2.0,8.0,41,0.00,,,0.00,meteohub,2013-04-01 18:33:00,
2013-04-01 12:38:00,43.3,20.7,29.99,North,0,7.0,7.0,40,0.00,,,0.00,meteohub,2013-04-01 18:38:00,
2013-04-01 12:44:00,42.6,17.6,29.99,South,180,2.0,7.0,36,0.00,,,0.00,meteohub,2013-04-01 18:44:00,
2013-04-01 12:49:00,42.3,17.2,29.99,North,0,2.0,7.0,36,0.00,,,0.00,meteohub,2013-04-01 18:49:00,
2013-04-01 12:54:00,44.2,17.6,29.99,NW,315,3.0,7.0,34,0.00,,,0.00,meteohub,2013-04-01 18:54:00,
2013-04-01 12:59:00,47.1,19.4,29.99,West,270,8.0,8.0,33,0.00,,,0.00,meteohub,2013-04-01 18:59:00,
2013-04-01 13:04:00,49.1,19.0,29.99,NE,45,4.0,4.0,30,0.00,,,0.00,meteohub,2013-04-01 19:04:00,
2013-04-01 13:10:00,50.9,19.8,29.98,NW,315,2.0,8.0,29,0.00,,,0.00,meteohub,2013-04-01 19:10:00,
2013-04-01 13:15:00,52.2,17.4,29.98,East,90,6.0,7.0,25,0.00,,,0.00,meteohub,2013-04-01 19:15:00,
2013-04-01 13:20:00,52.5,15.8,29.98,NE,45,5.0,10.0,23,0.00,,,0.00,meteohub,2013-04-01 19:20:00,
2013-04-01 13:25:00,51.6,15.1,29.98,West,270,4.0,10.0,23,0.00,,,0.00,meteohub,2013-04-01 19:25:00,
2013-04-01 13:31:00,51.4,14.9,29.98,NNW,338,8.0,11.0,23,0.00,,,0.00,meteohub,2013-04-01 19:31:00,
2013-04-01 13:36:00,49.5,14.2,29.99,SW,225,4.0,11.0,24,0.00,,,0.00,meteohub,2013-04-01 19:36:00,
2013-04-01 13:41:00,46.8,13.6,29.99,NW,315,8.0,11.0,26,0.00,,,0.00,meteohub,2013-04-01 19:41:00,
2013-04-01 13:47:00,45.3,13.3,29.99,SW,225,7.0,11.0,27,0.00,,,0.00,meteohub,2013-04-01 19:47:00,
2013-04-01 13:52:00,44.8,14.5,29.98,North,0,2.0,11.0,29,0.00,,,0.00,meteohub,2013-04-01 19:52:00,
2013-04-01 13:57:00,44.4,16.3,29.99,North,0,3.0,11.0,32,0.00,,,0.00,meteohub,2013-04-01 19:57:00,
2013-04-01 14:02:00,44.4,17.8,29.99,East,90,6.0,9.0,34,0.00,,,0.00,meteohub,2013-04-01 20:02:00,
2013-04-01 14:07:00,44.6,18.0,29.99,NE,45,2.0,8.0,34,0.00,,,0.00,meteohub,2013-04-01 20:07:00,
2013-04-01 14:12:00,44.6,16.5,29.99,NW,315,2.0,8.0,32,0.00,,,0.00,meteohub,2013-04-01 20:12:00,
2013-04-01 14:17:00,44.4,19.0,29.99,SE,135,3.0,6.0,36,0.00,,,0.00,meteohub,2013-04-01 20:17:00,
2013-04-01 14:23:00,44.6,20.5,29.99,North,0,4.0,6.0,38,0.00,,,0.00,meteohub,2013-04-01 20:23:00,
2013-04-01 14:28:00,43.5,20.1,29.99,East,90,4.0,7.0,39,0.00,,,0.00,meteohub,2013-04-01 20:28:00,
2013-04-01 14:33:00,43.9,21.7,29.98,SE,135,4.0,7.0,41,0.00,,,0.00,meteohub,2013-04-01 20:33:00,
2013-04-01 14:38:00,43.5,21.4,29.99,NW,315,8.0,8.0,41,0.00,,,0.00,meteohub,2013-04-01 20:38:00,
2013-04-01 14:43:00,42.1,22.8,29.99,North,0,6.0,13.0,46,0.00,,,0.00,meteohub,2013-04-01 20:43:00,
2013-04-01 14:48:00,41.2,23.9,29.98,NW,315,4.0,14.0,50,0.00,,,0.00,meteohub,2013-04-01 20:48:00,
2013-04-01 14:53:00,43.2,25.7,29.98,West,270,4.0,14.0,50,0.00,,,0.00,meteohub,2013-04-01 20:53:00,
2013-04-01 14:59:00,43.2,24.8,29.97,NW,315,3.0,14.0,48,0.00,,,0.00,meteohub,2013-04-01 20:59:00,
2013-04-01 15:04:00,42.8,23.4,29.97,NW,315,4.0,7.0,46,0.00,,,0.00,meteohub,2013-04-01 21:04:00,
2013-04-01 15:09:00,42.8,22.5,29.96,WSW,248,4.0,6.0,44,0.00,,,0.00,meteohub,2013-04-01 21:09:00,
2013-04-01 15:14:00,43.3,22.3,29.96,NW,315,2.0,6.0,43,0.00,,,0.00,meteohub,2013-04-01 21:14:00,
2013-04-01 15:20:00,43.9,22.8,29.96,North,0,2.0,6.0,43,0.00,,,0.00,meteohub,2013-04-01 21:20:00,
2013-04-01 15:25:00,43.9,21.7,29.96,West,270,6.0,8.0,41,0.00,,,0.00,meteohub,2013-04-01 21:25:00,
2013-04-01 15:30:00,44.2,21.4,29.96,NNW,338,4.0,8.0,40,0.00,,,0.00,meteohub,2013-04-01 21:30:00,
2013-04-01 15:35:00,44.1,19.4,29.96,West,270,7.0,13.0,37,0.00,,,0.00,meteohub,2013-04-01 21:35:00,
2013-04-01 15:40:00,43.3,16.9,29.96,SW,225,4.0,13.0,34,0.00,,,0.00,meteohub,2013-04-01 21:40:00,
2013-04-01 15:45:00,43.2,17.4,29.96,NNW,338,7.0,13.0,35,0.00,,,0.00,meteohub,2013-04-01 21:45:00,
2013-04-01 15:51:00,42.6,18.1,29.96,West,270,5.0,11.0,37,0.00,,,0.00,meteohub,2013-04-01 21:51:00,
2013-04-01 15:56:00,42.4,19.8,29.96,NW,315,2.0,11.0,40,0.00,,,0.00,meteohub,2013-04-01 21:56:00,
2013-04-01 16:01:00,42.4,19.8,29.96,West,270,0.0,7.0,40,0.00,,,0.00,meteohub,2013-04-01 22:01:00,
2013-04-01 16:06:00,42.4,19.8,29.96,West,270,0.0,5.0,40,0.00,,,0.00,meteohub,2013-04-01 22:06:00,
2013-04-01 16:11:00,41.7,19.2,29.96,East,90,7.0,7.0,40,0.00,,,0.00,meteohub,2013-04-01 22:11:00,
2013-04-01 16:16:00,40.6,18.9,29.96,WNW,293,6.0,7.0,41,0.00,,,0.00,meteohub,2013-04-01 22:16:00,
2013-04-01 16:21:00,40.8,20.7,29.96,West,270,5.0,8.0,44,0.00,,,0.00,meteohub,2013-04-01 22:21:00,
2013-04-01 16:26:00,41.2,20.3,29.96,NW,315,5.0,10.0,43,0.00,,,0.00,meteohub,2013-04-01 22:26:00,
2013-04-01 16:32:00,41.0,19.6,29.96,NW,315,2.0,10.0,42,0.00,,,0.00,meteohub,2013-04-01 22:32:00,
2013-04-01 16:37:00,40.8,20.7,29.96,West,270,4.0,10.0,44,0.00,,,0.00,meteohub,2013-04-01 22:37:00,
2013-04-01 16:42:00,41.2,20.3,29.95,East,90,2.0,9.0,43,0.00,,,0.00,meteohub,2013-04-01 22:42:00,
2013-04-01 16:47:00,41.7,20.3,29.95,SE,135,4.0,7.0,42,0.00,,,0.00,meteohub,2013-04-01 22:47:00,
2013-04-01 16:52:00,41.7,19.8,29.95,SW,225,8.0,8.0,41,0.00,,,0.00,meteohub,2013-04-01 22:52:00,
2013-04-01 16:58:00,42.1,20.7,29.95,NW,315,3.0,8.0,42,0.00,,,0.00,meteohub,2013-04-01 22:58:00,
2013-04-01 17:03:00,42.3,19.6,29.95,NW,315,3.0,8.0,40,0.00,,,0.00,meteohub,2013-04-01 23:03:00,
2013-04-01 17:08:00,42.3,19.6,29.94,North,0,2.0,8.0,40,0.00,,,0.00,meteohub,2013-04-01 23:08:00,
2013-04-01 17:13:00,41.9,18.7,29.94,NE,45,0.0,7.0,39,0.00,,,0.00,meteohub,2013-04-01 23:13:00,
2013-04-01 17:18:00,41.7,20.3,29.95,NW,315,2.0,7.0,42,0.00,,,0.00,meteohub,2013-04-01 23:18:00,
2013-04-01 17:24:00,41.2,18.7,29.95,NW,315,4.0,4.0,40,0.00,,,0.00,meteohub,2013-04-01 23:24:00,
2013-04-01 17:29:00,40.6,18.9,29.95,NW,315,7.0,7.0,41,0.00,,,0.00,meteohub,2013-04-01 23:29:00,
2013-04-01 17:34:00,40.1,18.9,29.95,NW,315,2.0,7.0,42,0.00,,,0.00,meteohub,2013-04-01 23:34:00,
2013-04-01 17:40:00,39.6,20.5,29.95,NW,315,3.0,8.0,46,0.00,,,0.00,meteohub,2013-04-01 23:40:00,
2013-04-01 17:45:00,39.4,20.8,29.95,West,270,2.0,8.0,47,0.00,,,0.00,meteohub,2013-04-01 23:45:00,
2013-04-01 17:50:00,38.8,21.4,29.95,East,90,4.0,8.0,49,0.00,,,0.00,meteohub,2013-04-01 23:50:00,
2013-04-01 17:56:00,38.3,21.2,29.95,SE,135,2.0,7.0,50,0.00,,,0.00,meteohub,2013-04-01 23:56:00,
2013-04-01 18:01:00,38.3,19.8,29.95,SE,135,1.0,7.0,47,0.00,,,0.00,meteohub,2013-04-02 00:01:00,
2013-04-01 18:06:00,38.3,19.8,29.95,SE,135,1.0,7.0,47,0.00,,,0.00,meteohub,2013-04-02 00:06:00,
2013-04-01 18:11:00,38.8,22.6,29.95,NW,315,4.0,4.0,52,0.00,,,0.00,meteohub,2013-04-02 00:11:00,
2013-04-01 18:16:00,39.0,21.0,29.95,North,0,2.0,7.0,48,0.00,,,0.00,meteohub,2013-04-02 00:16:00,
2013-04-01 18:22:00,38.8,21.4,29.94,NW,315,1.0,7.0,49,0.00,,,0.00,meteohub,2013-04-02 00:22:00,
2013-04-01 18:27:00,38.7,21.2,29.94,West,270,2.0,7.0,49,0.00,,,0.00,meteohub,2013-04-02 00:27:00,
2013-04-01 18:32:00,38.7,21.6,29.94,NNW,338,2.0,3.0,50,0.00,,,0.00,meteohub,2013-04-02 00:32:00,
2013-04-01 18:37:00,38.5,22.5,29.95,West,270,2.0,2.0,52,0.00,,,0.00,meteohub,2013-04-02 00:37:00,
2013-04-01 18:42:00,38.3,22.3,29.95,SE,135,1.0,3.0,52,0.00,,,0.00,meteohub,2013-04-02 00:42:00,
2013-04-01 18:47:00,37.9,21.9,29.95,SE,135,2.0,3.0,52,0.00,,,0.00,meteohub,2013-04-02 00:47:00,
2013-04-01 18:53:00,37.6,21.6,29.94,SE,135,1.0,3.0,52,0.00,,,0.00,meteohub,2013-04-02 00:53:00,
2013-04-01 18:58:00,37.2,20.8,29.95,NW,315,0.0,3.0,51,0.00,,,0.00,meteohub,2013-04-02 00:58:00,
2013-04-01 19:03:00,36.9,20.5,29.94,SE,135,3.0,3.0,51,0.00,,,0.00,meteohub,2013-04-02 01:03:00,
2013-04-01 19:08:00,36.1,19.2,29.94,SE,135,1.0,4.0,50,0.00,,,0.00,meteohub,2013-04-02 01:08:00,
2013-04-01 19:13:00,35.8,19.4,29.94,East,90,1.0,5.0,51,0.00,,,0.00,meteohub,2013-04-02 01:13:00,
2013-04-01 19:19:00,35.2,18.5,29.94,SE,135,2.0,5.0,50,0.00,,,0.00,meteohub,2013-04-02 01:19:00,
2013-04-01 19:24:00,35.4,18.1,29.94,SE,135,2.0,5.0,49,0.00,,,0.00,meteohub,2013-04-02 01:24:00,
2013-04-01 19:29:00,35.1,17.8,29.95,SE,135,3.0,4.0,49,0.00,,,0.00,meteohub,2013-04-02 01:29:00,
2013-04-01 19:35:00,34.9,17.6,29.95,South,180,3.0,4.0,49,0.00,,,0.00,meteohub,2013-04-02 01:35:00,
2013-04-01 19:40:00,34.5,17.2,29.96,SW,225,2.0,4.0,49,0.00,,,0.00,meteohub,2013-04-02 01:40:00,
2013-04-01 19:45:00,34.5,17.2,29.96,SE,135,2.0,4.0,49,0.00,,,0.00,meteohub,2013-04-02 01:45:00,
2013-04-01 19:50:00,34.3,17.6,29.96,South,180,3.0,4.0,50,0.00,,,0.00,meteohub,2013-04-02 01:50:00,
2013-04-01 19:55:00,34.3,18.5,29.96,North,0,2.0,4.0,52,0.00,,,0.00,meteohub,2013-04-02 01:55:00,
2013-04-01 20:01:00,34.2,18.9,29.96,WNW,293,2.0,3.0,53,0.00,,,0.00,meteohub,2013-04-02 02:01:00,
2013-04-01 20:06:00,34.2,18.9,29.96,WNW,293,2.0,3.0,53,0.00,,,0.00,meteohub,2013-04-02 02:06:00,
2013-04-01 20:11:00,33.6,20.8,29.96,SE,135,3.0,4.0,59,0.00,,,0.00,meteohub,2013-04-02 02:11:00,
2013-04-01 20:17:00,33.3,20.8,29.96,SE,135,2.0,4.0,60,0.00,,,0.00,meteohub,2013-04-02 02:17:00,
2013-04-01 20:22:00,33.1,20.7,29.97,NW,315,2.0,4.0,60,0.00,,,0.00,meteohub,2013-04-02 02:22:00,
2013-04-01 20:27:00,33.1,21.0,29.97,ESE,113,3.0,4.0,61,0.00,,,0.00,meteohub,2013-04-02 02:27:00,
2013-04-01 20:32:00,32.9,21.7,29.98,SE,135,3.0,4.0,63,0.00,,,0.00,meteohub,2013-04-02 02:32:00,
2013-04-01 20:37:00,32.5,22.1,29.98,SE,135,2.0,3.0,65,0.00,,,0.00,meteohub,2013-04-02 02:37:00,
2013-04-01 20:42:00,32.2,22.8,29.98,SE,135,0.0,3.0,68,0.00,,,0.00,meteohub,2013-04-02 02:42:00,
2013-04-01 20:47:00,32.0,23.4,29.98,SE,135,0.0,3.0,70,0.00,,,0.00,meteohub,2013-04-02 02:47:00,
2013-04-01 20:52:00,31.6,23.4,29.98,SE,135,1.0,3.0,71,0.00,,,0.00,meteohub,2013-04-02 02:52:00,
2013-04-01 20:57:00,31.5,23.5,29.98,South,180,0.0,2.0,72,0.00,,,0.00,meteohub,2013-04-02 02:57:00,
2013-04-01 21:02:00,31.3,23.4,29.98,SE,135,1.0,2.0,72,0.00,,,0.00,meteohub,2013-04-02 03:02:00,
2013-04-01 21:07:00,31.1,23.2,29.98,SE,135,0.0,1.0,72,0.00,,,0.00,meteohub,2013-04-02 03:07:00,
2013-04-01 21:12:00,30.7,22.8,29.98,SE,135,1.0,1.0,72,0.00,,,0.00,meteohub,2013-04-02 03:12:00,
2013-04-01 21:17:00,30.4,22.1,29.98,East,90,1.0,1.0,71,0.00,,,0.00,meteohub,2013-04-02 03:17:00,
2013-04-01 21:22:00,30.0,22.1,29.99,SE,135,1.0,2.0,72,0.00,,,0.00,meteohub,2013-04-02 03:22:00,
2013-04-01 21:28:00,29.8,21.9,29.98,SE,135,2.0,2.0,72,0.00,,,0.00,meteohub,2013-04-02 03:28:00,
2013-04-01 21:33:00,29.7,22.1,29.98,SE,135,1.0,2.0,73,0.00,,,0.00,meteohub,2013-04-02 03:33:00,
2013-04-01 21:38:00,29.7,22.1,29.99,SE,135,0.0,2.0,73,0.00,,,0.00,meteohub,2013-04-02 03:38:00,
2013-04-01 21:44:00,29.7,22.5,29.99,SE,135,0.0,2.0,74,0.00,,,0.00,meteohub,2013-04-02 03:44:00,
2013-04-01 21:49:00,29.7,22.5,29.98,SE,135,0.0,2.0,74,0.00,,,0.00,meteohub,2013-04-02 03:49:00,
2013-04-01 21:54:00,29.7,22.5,29.99,SE,135,0.0,2.0,74,0.00,,,0.00,meteohub,2013-04-02 03:54:00,
2013-04-01 21:59:00,29.3,22.1,29.99,SE,135,0.0,1.0,74,0.00,,,0.00,meteohub,2013-04-02 03:59:00,
2013-04-01 22:00:00,29.3,22.1,29.99,SE,135,0.0,0.0,74,0.00,,,0.00,meteohub,2013-04-02 04:00:00,
2013-04-01 22:01:00,29.3,22.1,29.99,SE,135,0.0,0.0,74,0.00,,,0.00,meteohub,2013-04-02 04:01:00,
2013-04-01 22:02:00,29.3,22.1,29.99,SE,135,0.0,0.0,74,0.00,,,0.00,meteohub,2013-04-02 04:02:00,
2013-04-01 22:07:00,29.1,21.9,29.99,SE,135,1.0,0.0,74,0.00,,,0.00,meteohub,2013-04-02 04:07:00,
2013-04-01 22:12:00,28.9,22.1,29.99,SE,135,0.0,1.0,75,0.00,,,0.00,meteohub,2013-04-02 04:12:00,
2013-04-01 22:17:00,28.8,21.9,29.99,SW,225,0.0,1.0,75,0.00,,,0.00,meteohub,2013-04-02 04:17:00,
2013-04-01 22:23:00,28.8,21.9,29.99,East,90,0.0,2.0,75,0.00,,,0.00,meteohub,2013-04-02 04:23:00,
2013-04-01 22:28:00,28.8,22.1,29.99,East,90,1.0,2.0,76,0.00,,,0.00,meteohub,2013-04-02 04:28:00,
2013-04-01 22:33:00,28.6,21.9,29.99,SE,135,1.0,2.0,76,0.00,,,0.00,meteohub,2013-04-02 04:33:00,
2013-04-01 22:38:00,28.6,22.3,29.99,NW,315,0.0,2.0,77,0.00,,,0.00,meteohub,2013-04-02 04:38:00,
2013-04-01 22:43:00,28.8,22.5,29.98,SW,225,0.0,2.0,77,0.00,,,0.00,meteohub,2013-04-02 04:43:00,
2013-04-01 22:48:00,28.8,22.5,29.98,East,90,0.0,1.0,77,0.00,,,0.00,meteohub,2013-04-02 04:48:00,
2013-04-01 22:53:00,28.9,23.0,29.98,SE,135,0.0,1.0,78,0.00,,,0.00,meteohub,2013-04-02 04:53:00,
2013-04-01 22:59:00,28.9,23.0,29.98,SE,135,0.0,0.0,78,0.00,,,0.00,meteohub,2013-04-02 04:59:00,
2013-04-01 23:04:00,28.9,23.0,29.98,SE,135,0.0,0.0,78,0.00,,,0.00,meteohub,2013-04-02 05:04:00,
2013-04-01 23:09:00,28.9,23.2,29.98,SE,135,0.0,0.0,79,0.00,,,0.00,meteohub,2013-04-02 05:09:00,
2013-04-01 23:15:00,28.9,23.2,29.98,SE,135,0.0,0.0,79,0.00,,,0.00,meteohub,2013-04-02 05:15:00,
2013-04-01 23:20:00,28.8,23.0,29.98,SW,225,2.0,0.0,79,0.00,,,0.00,meteohub,2013-04-02 05:20:00,
2013-04-01 23:26:00,28.8,23.0,29.98,South,180,2.0,4.0,79,0.00,,,0.00,meteohub,2013-04-02 05:26:00,
2013-04-01 23:31:00,28.8,23.0,29.98,SE,135,2.0,4.0,79,0.00,,,0.00,meteohub,2013-04-02 05:31:00,
2013-04-01 23:36:00,28.6,22.8,29.98,SE,135,2.0,4.0,79,0.00,,,0.00,meteohub,2013-04-02 05:36:00,
2013-04-01 23:41:00,28.2,21.4,29.98,SE,135,2.0,4.0,75,0.00,,,0.00,meteohub,2013-04-02 05:41:00,
2013-04-01 23:46:00,28.0,20.8,29.98,SE,135,2.0,2.0,74,0.00,,,0.00,meteohub,2013-04-02 05:46:00,
2013-04-01 23:52:00,27.9,20.7,29.98,SE,135,0.0,2.0,74,0.00,,,0.00,meteohub,2013-04-02 05:52:00,
2013-04-01 23:57:00,27.7,20.5,29.97,SE,135,0.0,2.0,74,0.00,,,0.00,meteohub,2013-04-02 05:57:00,